Private Wetterstation Sandau
Wetterdaten: Samstag, 19.05.2012
Datum Zeit Temp. A. Feuchte A. Luftdruck Regen Wind Richtung Richtung Taupunkt Windchill
19.05.2012 00:01 11,8 C 53 % 1014,8 hPa 0,0 l/m 4,7 km/h (1 Bft) O 90 2,5 C 11,8 C
19.05.2012 00:06 11,8 C 53 % 1014,8 hPa 0,0 l/m 7,6 km/h (2 Bft) O 90 2,5 C 11,8 C
19.05.2012 00:11 11,8 C 53 % 1014,7 hPa 0,0 l/m 5,0 km/h (1 Bft) O-NO 67 2,5 C 11,8 C
19.05.2012 00:16 11,7 C 53 % 1014,7 hPa 0,0 l/m 2,5 km/h (1 Bft) O-SO 112 2,4 C 11,7 C
19.05.2012 00:21 11,6 C 53 % 1014,5 hPa 0,0 l/m 5,8 km/h (2 Bft) O 90 2,4 C 11,6 C
19.05.2012 00:26 11,6 C 53 % 1014,6 hPa 0,0 l/m 3,2 km/h (1 Bft) O-SO 112 2,4 C 11,6 C
19.05.2012 00:31 11,6 C 53 % 1014,5 hPa 0,0 l/m 4,0 km/h (1 Bft) O-SO 112 2,4 C 11,6 C
19.05.2012 00:36 11,6 C 53 % 1014,5 hPa 0,0 l/m 4,0 km/h (1 Bft) O 90 2,4 C 11,6 C
19.05.2012 00:41 11,6 C 53 % 1014,5 hPa 0,0 l/m 6,5 km/h (2 Bft) O-NO 67 2,4 C 11,6 C
19.05.2012 00:46 11,6 C 54 % 1014,5 hPa 0,0 l/m 3,6 km/h (1 Bft) O-SO 112 2,6 C 11,6 C
19.05.2012 00:51 11,6 C 54 % 1014,5 hPa 0,0 l/m 6,1 km/h (2 Bft) SO 135 2,6 C 11,6 C
19.05.2012 00:56 11,6 C 54 % 1014,6 hPa 0,0 l/m 4,0 km/h (1 Bft) O-SO 112 2,6 C 11,6 C
19.05.2012 01:01 11,6 C 54 % 1014,7 hPa 0,0 l/m 6,8 km/h (2 Bft) O 90 2,6 C 11,6 C
19.05.2012 01:06 11,6 C 54 % 1014,6 hPa 0,0 l/m 6,5 km/h (2 Bft) O-SO 112 2,6 C 11,6 C
19.05.2012 01:11 11,6 C 54 % 1014,6 hPa 0,0 l/m 2,5 km/h (1 Bft) SO 135 2,6 C 11,6 C
19.05.2012 01:16 11,6 C 54 % 1014,5 hPa 0,0 l/m 5,0 km/h (1 Bft) O-SO 112 2,6 C 11,6 C
19.05.2012 01:21 11,6 C 54 % 1014,5 hPa 0,0 l/m 5,4 km/h (1 Bft) O-SO 112 2,6 C 11,6 C
19.05.2012 01:26 11,6 C 54 % 1014,6 hPa 0,0 l/m 3,2 km/h (1 Bft) O 90 2,6 C 11,6 C
19.05.2012 01:31 11,6 C 55 % 1014,6 hPa 0,0 l/m 6,5 km/h (2 Bft) SO 135 2,9 C 11,6 C
19.05.2012 01:36 11,6 C 55 % 1014,5 hPa 0,0 l/m 5,0 km/h (1 Bft) O-SO 112 2,9 C 11,6 C
19.05.2012 01:41 11,5 C 55 % 1014,5 hPa 0,0 l/m 6,5 km/h (2 Bft) O-SO 112 2,8 C 11,5 C
19.05.2012 01:46 11,5 C 55 % 1014,5 hPa 0,0 l/m 7,2 km/h (2 Bft) O 90 2,8 C 11,5 C
19.05.2012 01:51 11,5 C 56 % 1014,6 hPa 0,0 l/m 5,0 km/h (1 Bft) SO 135 3,0 C 11,5 C
19.05.2012 01:56 11,5 C 56 % 1014,5 hPa 0,0 l/m 4,3 km/h (1 Bft) O 90 3,0 C 11,5 C
19.05.2012 02:01 11,5 C 56 % 1014,6 hPa 0,0 l/m 5,0 km/h (1 Bft) SO 135 3,0 C 11,5 C
19.05.2012 02:06 11,5 C 56 % 1014,6 hPa 0,0 l/m 3,2 km/h (1 Bft) SO 135 3,0 C 11,5 C
19.05.2012 02:11 11,5 C 56 % 1014,6 hPa 0,0 l/m 0,0 km/h (0 Bft) O-NO 67 3,0 C 11,5 C
19.05.2012 02:16 11,5 C 56 % 1014,6 hPa 0,0 l/m 4,7 km/h (1 Bft) O-SO 112 3,0 C 11,5 C
19.05.2012 02:21 11,5 C 56 % 1014,6 hPa 0,0 l/m 1,8 km/h (1 Bft) SO 135 3,0 C 11,5 C
19.05.2012 02:26 11,5 C 56 % 1014,6 hPa 0,0 l/m 2,5 km/h (1 Bft) SO 135 3,0 C 11,5 C
19.05.2012 02:31 11,5 C 56 % 1014,5 hPa 0,0 l/m 2,5 km/h (1 Bft) O 90 3,0 C 11,5 C
19.05.2012 02:36 11,5 C 57 % 1014,5 hPa 0,0 l/m 5,0 km/h (1 Bft) O-SO 112 3,3 C 11,5 C
19.05.2012 02:41 11,4 C 57 % 1014,4 hPa 0,0 l/m 4,7 km/h (1 Bft) O 90 3,2 C 11,4 C
19.05.2012 02:46 11,4 C 57 % 1014,5 hPa 0,0 l/m 2,9 km/h (1 Bft) O-SO 112 3,2 C 11,4 C
19.05.2012 02:51 11,3 C 57 % 1014,4 hPa 0,0 l/m 0,0 km/h (0 Bft) O 90 3,1 C 11,3 C
19.05.2012 02:56 11,3 C 57 % 1014,4 hPa 0,0 l/m 2,2 km/h (1 Bft) O 90 3,1 C 11,3 C
19.05.2012 03:01 11,3 C 58 % 1014,3 hPa 0,0 l/m 4,0 km/h (1 Bft) O-SO 112 3,3 C 11,3 C
19.05.2012 03:06 11,3 C 58 % 1014,4 hPa 0,0 l/m 5,8 km/h (2 Bft) O-SO 112 3,3 C 11,3 C
19.05.2012 03:11 11,3 C 58 % 1014,5 hPa 0,0 l/m 3,2 km/h (1 Bft) O 90 3,3 C 11,3 C
19.05.2012 03:16 11,3 C 58 % 1014,4 hPa 0,0 l/m 3,2 km/h (1 Bft) O-SO 112 3,3 C 11,3 C
19.05.2012 03:21 11,3 C 58 % 1014,4 hPa 0,0 l/m 5,8 km/h (2 Bft) O-SO 112 3,3 C 11,3 C
19.05.2012 03:26 11,3 C 59 % 1014,4 hPa 0,0 l/m 4,0 km/h (1 Bft) O-SO 112 3,6 C 11,3 C
19.05.2012 03:31 11,3 C 59 % 1014,3 hPa 0,0 l/m 5,0 km/h (1 Bft) O 90 3,6 C 11,3 C
19.05.2012 03:36 11,3 C 59 % 1014,3 hPa 0,0 l/m 9,7 km/h (2 Bft) O-SO 112 3,6 C 11,3 C
19.05.2012 03:41 11,3 C 59 % 1014,3 hPa 0,0 l/m 5,4 km/h (1 Bft) O 90 3,6 C 11,3 C
19.05.2012 03:46 11,3 C 59 % 1014,4 hPa 0,0 l/m 6,1 km/h (2 Bft) O-SO 112 3,6 C 11,3 C
19.05.2012 03:51 11,3 C 59 % 1014,4 hPa 0,0 l/m 4,7 km/h (1 Bft) O-NO 67 3,6 C 11,3 C
19.05.2012 03:56 11,3 C 59 % 1014,3 hPa 0,0 l/m 4,7 km/h (1 Bft) O 90 3,6 C 11,3 C
19.05.2012 04:01 11,3 C 60 % 1014,4 hPa 0,0 l/m 4,7 km/h (1 Bft) O-NO 67 3,8 C 11,3 C
19.05.2012 04:06 11,3 C 60 % 1014,4 hPa 0,0 l/m 6,1 km/h (2 Bft) O-SO 112 3,8 C 11,3 C
19.05.2012 04:11 11,3 C 60 % 1014,3 hPa 0,0 l/m 5,0 km/h (1 Bft) O-SO 112 3,8 C 11,3 C
19.05.2012 04:16 11,3 C 61 % 1014,3 hPa 0,0 l/m 3,6 km/h (1 Bft) O 90 4,1 C 11,3 C
19.05.2012 04:21 11,3 C 61 % 1014,2 hPa 0,0 l/m 10,8 km/h (2 Bft) O 90 4,1 C 11,3 C
19.05.2012 04:26 11,2 C 61 % 1014,3 hPa 0,0 l/m 3,6 km/h (1 Bft) O-SO 112 4,0 C 11,2 C
19.05.2012 04:31 11,3 C 61 % 1014,2 hPa 0,0 l/m 6,8 km/h (2 Bft) O 90 4,1 C 11,3 C
19.05.2012 04:36 11,3 C 61 % 1014,3 hPa 0,0 l/m 6,1 km/h (2 Bft) O 90 4,1 C 11,3 C
19.05.2012 04:41 11,3 C 62 % 1014,2 hPa 0,0 l/m 4,0 km/h (1 Bft) SO 135 4,3 C 11,3 C
19.05.2012 04:46 11,3 C 62 % 1014,4 hPa 0,0 l/m 2,2 km/h (1 Bft) O-SO 112 4,3 C 11,3 C
19.05.2012 04:51 11,3 C 62 % 1014,4 hPa 0,0 l/m 3,2 km/h (1 Bft) SO 135 4,3 C 11,3 C
19.05.2012 04:56 11,3 C 62 % 1014,3 hPa 0,0 l/m 2,2 km/h (1 Bft) O-SO 112 4,3 C 11,3 C
19.05.2012 05:01 11,3 C 62 % 1014,4 hPa 0,0 l/m 5,0 km/h (1 Bft) O-SO 112 4,3 C 11,3 C
19.05.2012 05:06 11,2 C 63 % 1014,3 hPa 0,0 l/m 2,5 km/h (1 Bft) O-SO 112 4,4 C 11,2 C
19.05.2012 05:11 11,2 C 62 % 1014,4 hPa 0,0 l/m 0,0 km/h (0 Bft) SO 135 4,2 C 11,2 C
19.05.2012 05:16 11,2 C 63 % 1014,3 hPa 0,0 l/m 4,3 km/h (1 Bft) O-SO 112 4,4 C 11,2 C
19.05.2012 05:21 11,2 C 63 % 1014,4 hPa 0,0 l/m 0,0 km/h (0 Bft) SO 135 4,4 C 11,2 C
19.05.2012 05:26 11,2 C 63 % 1014,5 hPa 0,0 l/m 0,0 km/h (0 Bft) S-SO 157 4,4 C 11,2 C
19.05.2012 05:31 11,3 C 63 % 1014,5 hPa 0,0 l/m 0,0 km/h (0 Bft) SO 135 4,5 C 11,3 C
19.05.2012 05:36 11,3 C 63 % 1014,5 hPa 0,0 l/m 6,5 km/h (2 Bft) O-SO 112 4,5 C 11,3 C
19.05.2012 05:41 11,3 C 64 % 1014,5 hPa 0,0 l/m 4,7 km/h (1 Bft) O-SO 112 4,7 C 11,3 C
19.05.2012 05:46 11,2 C 64 % 1014,4 hPa 0,0 l/m 3,6 km/h (1 Bft) O-SO 112 4,6 C 11,2 C
19.05.2012 05:51 11,2 C 65 % 1014,4 hPa 0,0 l/m 5,0 km/h (1 Bft) O-SO 112 4,9 C 11,2 C
19.05.2012 05:56 11,1 C 65 % 1014,5 hPa 0,0 l/m 5,8 km/h (2 Bft) O 90 4,8 C 11,1 C
19.05.2012 06:01 11,1 C 65 % 1014,5 hPa 0,0 l/m 2,5 km/h (1 Bft) O-SO 112 4,8 C 11,1 C
19.05.2012 06:06 11,2 C 65 % 1014,5 hPa 0,0 l/m 3,6 km/h (1 Bft) O-SO 112 4,9 C 11,2 C
19.05.2012 06:11 11,1 C 65 % 1014,4 hPa 0,0 l/m 9,4 km/h (2 Bft) O 90 4,8 C 11,1 C
19.05.2012 06:16 11,1 C 65 % 1014,4 hPa 0,0 l/m 2,5 km/h (1 Bft) SO 135 4,8 C 11,1 C
19.05.2012 06:21 11,2 C 65 % 1014,5 hPa 0,0 l/m 4,3 km/h (1 Bft) O 90 4,9 C 11,2 C
19.05.2012 06:26 11,2 C 66 % 1014,4 hPa 0,0 l/m 3,6 km/h (1 Bft) SO 135 5,1 C 11,2 C
19.05.2012 06:31 11,2 C 67 % 1014,5 hPa 0,0 l/m 4,0 km/h (1 Bft) O 90 5,3 C 11,2 C
19.05.2012 06:36 11,1 C 68 % 1014,7 hPa 0,0 l/m 6,1 km/h (2 Bft) SO 135 5,4 C 11,1 C
19.05.2012 06:41 11,1 C 69 % 1014,5 hPa 0,0 l/m 5,8 km/h (2 Bft) O-SO 112 5,6 C 11,1 C
19.05.2012 06:46 11,0 C 70 % 1014,6 hPa 0,0 l/m 4,7 km/h (1 Bft) O 90 5,7 C 11,0 C
19.05.2012 06:51 10,9 C 71 % 1014,5 hPa 0,0 l/m 4,0 km/h (1 Bft) O 90 5,9 C 10,9 C
19.05.2012 06:56 10,9 C 72 % 1014,5 hPa 0,0 l/m 8,6 km/h (2 Bft) O 90 6,1 C 10,9 C
19.05.2012 07:01 10,9 C 72 % 1014,7 hPa 0,0 l/m 1,8 km/h (1 Bft) SO 135 6,1 C 10,9 C
19.05.2012 07:06 10,9 C 72 % 1014,7 hPa 0,0 l/m 5,4 km/h (1 Bft) O-SO 112 6,1 C 10,9 C
19.05.2012 07:11 10,9 C 72 % 1014,9 hPa 0,0 l/m 2,9 km/h (1 Bft) SO 135 6,1 C 10,9 C
19.05.2012 07:16 11,0 C 72 % 1014,9 hPa 0,0 l/m 3,6 km/h (1 Bft) SO 135 6,2 C 11,0 C
19.05.2012 07:21 11,1 C 73 % 1014,9 hPa 0,0 l/m 4,3 km/h (1 Bft) S-SO 157 6,4 C 11,1 C
19.05.2012 07:26 11,3 C 72 % 1014,9 hPa 0,0 l/m 3,2 km/h (1 Bft) SO 135 6,4 C 11,3 C
19.05.2012 07:31 11,4 C 72 % 1015,0 hPa 0,0 l/m 5,8 km/h (2 Bft) SO 135 6,5 C 11,4 C
19.05.2012 07:36 11,6 C 71 % 1015,0 hPa 0,0 l/m 0,0 km/h (0 Bft) SO 135 6,5 C 11,6 C
19.05.2012 07:41 11,8 C 71 % 1014,9 hPa 0,0 l/m 0,0 km/h (0 Bft) SO 135 6,7 C 11,8 C
19.05.2012 07:46 11,9 C 71 % 1014,9 hPa 0,0 l/m 1,8 km/h (1 Bft) O-SO 112 6,8 C 11,9 C
19.05.2012 07:51 12,1 C 71 % 1014,8 hPa 0,0 l/m 2,5 km/h (1 Bft) O 90 7,0 C 12,1 C
19.05.2012 07:56 12,4 C 70 % 1014,8 hPa 0,0 l/m 2,2 km/h (1 Bft) O 90 7,1 C 12,4 C
19.05.2012 08:01 12,6 C 69 % 1014,8 hPa 0,0 l/m 6,8 km/h (2 Bft) O 90 7,1 C 12,6 C
19.05.2012 08:06 12,6 C 68 % 1014,7 hPa 0,0 l/m 6,8 km/h (2 Bft) SO 135 6,9 C 12,6 C
19.05.2012 08:11 12,6 C 68 % 1014,9 hPa 0,0 l/m 5,8 km/h (2 Bft) SO 135 6,9 C 12,6 C
19.05.2012 08:16 12,8 C 68 % 1014,8 hPa 0,0 l/m 3,2 km/h (1 Bft) SO 135 7,0 C 12,8 C
19.05.2012 08:21 13,1 C 68 % 1014,9 hPa 0,0 l/m 4,0 km/h (1 Bft) S-SO 157 7,3 C 13,1 C
19.05.2012 08:26 13,5 C 68 % 1014,8 hPa 0,0 l/m 0,0 km/h (0 Bft) S-SO 157 7,7 C 13,5 C
19.05.2012 08:31 13,9 C 67 % 1014,9 hPa 0,0 l/m 7,6 km/h (2 Bft) S-SO 157 7,9 C 13,9 C
19.05.2012 08:36 14,3 C 65 % 1015,0 hPa 0,0 l/m 7,6 km/h (2 Bft) S-SO 157 7,8 C 14,3 C
19.05.2012 08:41 14,6 C 64 % 1015,0 hPa 0,0 l/m 5,8 km/h (2 Bft) S-SO 157 7,9 C 14,6 C
19.05.2012 08:46 14,9 C 63 % 1015,1 hPa 0,0 l/m 4,0 km/h (1 Bft) SO 135 7,9 C 14,9 C
19.05.2012 08:51 15,3 C 62 % 1015,1 hPa 0,0 l/m 7,9 km/h (2 Bft) S 180 8,1 C 15,3 C
19.05.2012 08:56 15,6 C 61 % 1015,0 hPa 0,0 l/m 4,7 km/h (1 Bft) S-SW 202 8,1 C 15,6 C
19.05.2012 09:01 15,9 C 60 % 1015,0 hPa 0,0 l/m 9,7 km/h (2 Bft) S-SO 157 8,1 C 15,9 C
19.05.2012 09:06 15,9 C 59 % 1015,1 hPa 0,0 l/m 8,6 km/h (2 Bft) S-SO 157 7,9 C 15,9 C
19.05.2012 09:11 15,9 C 59 % 1015,0 hPa 0,0 l/m 10,4 km/h (2 Bft) S 180 7,9 C 15,9 C
19.05.2012 09:16 15,9 C 59 % 1015,0 hPa 0,0 l/m 6,1 km/h (2 Bft) SO 135 7,9 C 15,9 C
19.05.2012 09:21 15,9 C 59 % 1015,0 hPa 0,0 l/m 6,1 km/h (2 Bft) SO 135 7,9 C 15,9 C
19.05.2012 09:26 15,9 C 59 % 1015,0 hPa 0,0 l/m 4,3 km/h (1 Bft) S 180 7,9 C 15,9 C
19.05.2012 09:31 15,9 C 59 % 1015,1 hPa 0,0 l/m 6,5 km/h (2 Bft) S 180 7,9 C 15,9 C
19.05.2012 09:36 15,9 C 59 % 1015,1 hPa 0,0 l/m 4,3 km/h (1 Bft) SO 135 7,9 C 15,9 C
19.05.2012 09:41 16,1 C 59 % 1015,0 hPa 0,0 l/m 5,4 km/h (1 Bft) SO 135 8,1 C 16,1 C
19.05.2012 09:46 16,6 C 59 % 1015,0 hPa 0,0 l/m 1,8 km/h (1 Bft) S 180 8,6 C 16,6 C
19.05.2012 09:51 16,9 C 58 % 1015,0 hPa 0,0 l/m 7,6 km/h (2 Bft) SO 135 8,6 C 16,9 C
19.05.2012 09:56 17,3 C 56 % 1015,0 hPa 0,0 l/m 5,0 km/h (1 Bft) S-SO 157 8,4 C 17,3 C
19.05.2012 10:01 17,4 C 55 % 1014,9 hPa 0,0 l/m 7,2 km/h (2 Bft) S-SO 157 8,3 C 17,4 C
19.05.2012 10:06 17,6 C 56 % 1014,9 hPa 0,0 l/m 1,4 km/h (1 Bft) SO 135 8,7 C 17,6 C
19.05.2012 10:11 17,8 C 55 % 1015,0 hPa 0,0 l/m 2,5 km/h (1 Bft) S-SO 157 8,6 C 17,8 C
19.05.2012 10:16 18,0 C 55 % 1014,9 hPa 0,0 l/m 1,8 km/h (1 Bft) O 90 8,8 C 18,0 C
19.05.2012 10:21 18,0 C 56 % 1014,9 hPa 0,0 l/m 6,5 km/h (2 Bft) SO 135 9,1 C 18,0 C
19.05.2012 10:26 18,1 C 57 % 1014,8 hPa 0,0 l/m 7,6 km/h (2 Bft) SO 135 9,4 C 18,1 C
19.05.2012 10:31 18,2 C 56 % 1014,8 hPa 0,0 l/m 6,5 km/h (2 Bft) NO 45 9,3 C 18,2 C
19.05.2012 10:36 18,4 C 57 % 1014,9 hPa 0,0 l/m 9,4 km/h (2 Bft) O 90 9,7 C 18,4 C
19.05.2012 10:41 18,4 C 57 % 1014,8 hPa 0,0 l/m 0,0 km/h (0 Bft) O-NO 67 9,7 C 18,4 C
19.05.2012 10:46 18,6 C 57 % 1014,6 hPa 0,0 l/m 0,0 km/h (0 Bft) SO 135 9,9 C 18,6 C
19.05.2012 10:51 18,8 C 56 % 1014,7 hPa 0,0 l/m 1,8 km/h (1 Bft) S-SW 202 9,8 C 18,8 C
19.05.2012 10:56 19,0 C 55 % 1014,6 hPa 0,0 l/m 3,2 km/h (1 Bft) SO 135 9,8 C 19,0 C
19.05.2012 11:01 19,3 C 55 % 1014,6 hPa 0,0 l/m 2,2 km/h (1 Bft) O 90 10,0 C 19,3 C
19.05.2012 11:06 19,6 C 54 % 1014,5 hPa 0,0 l/m 6,1 km/h (2 Bft) O-SO 112 10,0 C 19,6 C
19.05.2012 11:11 19,9 C 54 % 1014,5 hPa 0,0 l/m 4,3 km/h (1 Bft) O 90 10,3 C 19,9 C
19.05.2012 11:16 19,9 C 54 % 1014,5 hPa 0,0 l/m 0,0 km/h (0 Bft) S-SO 157 10,3 C 19,9 C
19.05.2012 11:21 20,1 C 53 % 1014,6 hPa 0,0 l/m 2,5 km/h (1 Bft) SO 135 10,2 C 20,1 C
19.05.2012 11:26 20,4 C 51 % 1014,6 hPa 0,0 l/m 9,4 km/h (2 Bft) S-SW 202 9,9 C 20,4 C
19.05.2012 11:31 20,6 C 51 % 1014,6 hPa 0,0 l/m 8,3 km/h (2 Bft) S-SO 157 10,1 C 20,6 C
19.05.2012 11:36 20,8 C 51 % 1014,5 hPa 0,0 l/m 8,6 km/h (2 Bft) S-SO 157 10,3 C 20,8 C
19.05.2012 11:41 20,9 C 51 % 1014,5 hPa 0,0 l/m 7,6 km/h (2 Bft) SW 225 10,4 C 20,9 C
19.05.2012 11:46 21,1 C 51 % 1014,6 hPa 0,0 l/m 10,1 km/h (2 Bft) S-SW 202 10,6 C 21,1 C
19.05.2012 11:51 21,2 C 50 % 1014,6 hPa 0,0 l/m 19,8 km/h (3 Bft) S-SW 202 10,4 C 21,2 C
19.05.2012 11:56 21,4 C 50 % 1014,6 hPa 0,0 l/m 14,8 km/h (3 Bft) SW 225 10,5 C 21,4 C
19.05.2012 12:01 21,6 C 50 % 1014,5 hPa 0,0 l/m 9,7 km/h (2 Bft) S 180 10,7 C 21,6 C
19.05.2012 12:06 21,7 C 50 % 1014,6 hPa 0,0 l/m 8,6 km/h (2 Bft) SW 225 10,8 C 21,7 C
19.05.2012 12:11 21,8 C 50 % 1014,5 hPa 0,0 l/m 3,2 km/h (1 Bft) S 180 10,9 C 21,8 C
19.05.2012 12:16 21,9 C 49 % 1014,4 hPa 0,0 l/m 7,6 km/h (2 Bft) S-SO 157 10,7 C 21,9 C
19.05.2012 12:21 22,1 C 49 % 1014,5 hPa 0,0 l/m 4,7 km/h (1 Bft) S-SO 157 10,9 C 22,1 C
19.05.2012 12:26 22,3 C 48 % 1014,3 hPa 0,0 l/m 5,8 km/h (2 Bft) S-SW 202 10,8 C 22,3 C
19.05.2012 12:31 22,4 C 48 % 1014,2 hPa 0,0 l/m 14,4 km/h (3 Bft) S-SW 202 10,8 C 22,4 C
19.05.2012 12:36 22,5 C 48 % 1014,4 hPa 0,0 l/m 7,2 km/h (2 Bft) SW 225 10,9 C 22,5 C
19.05.2012 12:41 22,7 C 48 % 1014,4 hPa 0,0 l/m 7,9 km/h (2 Bft) S 180 11,1 C 22,7 C
19.05.2012 12:46 22,9 C 48 % 1014,3 hPa 0,0 l/m 14,0 km/h (3 Bft) S 180 11,3 C 22,9 C
19.05.2012 12:51 23,3 C 47 % 1014,3 hPa 0,0 l/m 3,2 km/h (1 Bft) S 180 11,3 C 23,3 C
19.05.2012 12:56 23,4 C 47 % 1014,3 hPa 0,0 l/m 18,0 km/h (3 Bft) S-SW 202 11,4 C 23,4 C
19.05.2012 13:01 23,6 C 46 % 1014,3 hPa 0,0 l/m 6,5 km/h (2 Bft) S-SW 202 11,3 C 23,6 C
19.05.2012 13:06 23,6 C 46 % 1014,3 hPa 0,0 l/m 5,4 km/h (1 Bft) S-SW 202 11,3 C 23,6 C
19.05.2012 13:11 23,8 C 46 % 1014,3 hPa 0,0 l/m 11,2 km/h (2 Bft) S-SO 157 11,5 C 23,8 C
19.05.2012 13:16 23,7 C 45 % 1014,2 hPa 0,0 l/m 7,2 km/h (2 Bft) S-SO 157 11,1 C 23,7 C
19.05.2012 13:21 23,5 C 46 % 1014,2 hPa 0,0 l/m 8,3 km/h (2 Bft) S-SW 202 11,2 C 23,5 C
19.05.2012 13:26 23,6 C 46 % 1014,1 hPa 0,0 l/m 4,0 km/h (1 Bft) O-SO 112 11,3 C 23,6 C
19.05.2012 13:31 23,7 C 46 % 1014,1 hPa 0,0 l/m 6,8 km/h (2 Bft) S 180 11,4 C 23,7 C
19.05.2012 13:36 23,8 C 46 % 1014,1 hPa 0,0 l/m 15,8 km/h (3 Bft) S 180 11,5 C 23,8 C
19.05.2012 13:41 23,8 C 45 % 1013,9 hPa 0,0 l/m 5,8 km/h (2 Bft) SW 225 11,1 C 23,8 C
19.05.2012 13:46 24,0 C 46 % 1013,9 hPa 0,0 l/m 13,3 km/h (3 Bft) S-SW 202 11,7 C 24,0 C
19.05.2012 13:51 24,0 C 45 % 1014,0 hPa 0,0 l/m 23,0 km/h (4 Bft) S 180 11,3 C 24,0 C
19.05.2012 13:56 24,1 C 45 % 1014,0 hPa 0,0 l/m 7,6 km/h (2 Bft) W 270 11,4 C 24,1 C
19.05.2012 14:01 23,9 C 45 % 1014,1 hPa 0,0 l/m 3,2 km/h (1 Bft) S-SO 157 11,2 C 23,9 C
19.05.2012 14:06 23,9 C 45 % 1014,2 hPa 0,0 l/m 11,9 km/h (2 Bft) S-SO 157 11,2 C 23,9 C
19.05.2012 14:11 24,1 C 44 % 1013,9 hPa 0,0 l/m 11,9 km/h (2 Bft) W-SW 247 11,1 C 24,1 C
19.05.2012 14:16 24,1 C 44 % 1013,8 hPa 0,0 l/m 4,7 km/h (1 Bft) SW 225 11,1 C 24,1 C
19.05.2012 14:21 24,2 C 44 % 1014,0 hPa 0,0 l/m 9,7 km/h (2 Bft) S 180 11,2 C 24,2 C
19.05.2012 14:26 24,4 C 44 % 1013,9 hPa 0,0 l/m 13,3 km/h (3 Bft) S 180 11,3 C 24,4 C
19.05.2012 14:31 24,5 C 43 % 1013,8 hPa 0,0 l/m 7,2 km/h (2 Bft) S-SO 157 11,1 C 24,5 C
19.05.2012 14:36 24,2 C 43 % 1013,7 hPa 0,0 l/m 6,5 km/h (2 Bft) S-SW 202 10,8 C 24,2 C
19.05.2012 14:41 23,9 C 44 % 1013,8 hPa 0,0 l/m 5,4 km/h (1 Bft) S-SO 157 10,9 C 23,9 C
19.05.2012 14:46 23,8 C 44 % 1013,8 hPa 0,0 l/m 7,2 km/h (2 Bft) S-SO 157 10,8 C 23,8 C
19.05.2012 14:51 23,9 C 44 % 1013,8 hPa 0,0 l/m 3,6 km/h (1 Bft) S-SW 202 10,9 C 23,9 C
19.05.2012 14:56 24,2 C 43 % 1013,6 hPa 0,0 l/m 10,1 km/h (2 Bft) S-SO 157 10,8 C 24,2 C
19.05.2012 15:01 24,3 C 43 % 1013,7 hPa 0,0 l/m 6,5 km/h (2 Bft) S 180 10,9 C 24,3 C
19.05.2012 15:06 24,4 C 43 % 1013,6 hPa 0,0 l/m 4,0 km/h (1 Bft) S-SO 157 11,0 C 24,4 C
19.05.2012 15:11 24,8 C 43 % 1013,6 hPa 0,0 l/m 10,1 km/h (2 Bft) S-SO 157 11,4 C 24,8 C
19.05.2012 15:16 25,0 C 43 % 1013,6 hPa 0,0 l/m 17,3 km/h (3 Bft) S-SO 157 11,5 C 25,0 C
19.05.2012 15:21 24,9 C 42 % 1013,7 hPa 0,0 l/m 8,6 km/h (2 Bft) S-SO 157 11,1 C 24,9 C
19.05.2012 15:26 24,7 C 42 % 1013,6 hPa 0,0 l/m 3,6 km/h (1 Bft) S-SO 157 10,9 C 24,7 C
19.05.2012 15:31 24,8 C 43 % 1013,7 hPa 0,0 l/m 11,9 km/h (2 Bft) S-SO 157 11,4 C 24,8 C
19.05.2012 15:36 24,8 C 42 % 1013,7 hPa 0,0 l/m 18,0 km/h (3 Bft) S-SO 157 11,0 C 24,8 C
19.05.2012 15:41 24,6 C 43 % 1013,6 hPa 0,0 l/m 6,1 km/h (2 Bft) S 180 11,2 C 24,6 C
19.05.2012 15:46 24,6 C 44 % 1013,6 hPa 0,0 l/m 7,6 km/h (2 Bft) S-SW 202 11,5 C 24,6 C
19.05.2012 15:51 24,8 C 44 % 1013,5 hPa 0,0 l/m 10,8 km/h (2 Bft) S-SO 157 11,7 C 24,8 C
19.05.2012 15:56 25,0 C 44 % 1013,4 hPa 0,0 l/m 3,6 km/h (1 Bft) S 180 11,9 C 25,0 C
19.05.2012 16:01 25,1 C 43 % 1013,6 hPa 0,0 l/m 4,0 km/h (1 Bft) S-SO 157 11,6 C 25,1 C
19.05.2012 16:06 25,2 C 43 % 1013,4 hPa 0,0 l/m 5,4 km/h (1 Bft) S 180 11,7 C 25,2 C
19.05.2012 16:11 25,3 C 43 % 1013,3 hPa 0,0 l/m 10,8 km/h (2 Bft) S-SW 202 11,8 C 25,3 C
19.05.2012 16:16 25,3 C 43 % 1013,4 hPa 0,0 l/m 8,6 km/h (2 Bft) S-SO 157 11,8 C 25,3 C
19.05.2012 16:21 25,2 C 42 % 1013,4 hPa 0,0 l/m 1,4 km/h (1 Bft) SO 135 11,4 C 25,2 C
19.05.2012 16:26 25,1 C 42 % 1013,5 hPa 0,0 l/m 7,2 km/h (2 Bft) S-SW 202 11,3 C 25,1 C
19.05.2012 16:31 24,9 C 43 % 1013,3 hPa 0,0 l/m 7,6 km/h (2 Bft) S-SW 202 11,4 C 24,9 C
19.05.2012 16:36 24,7 C 43 % 1013,2 hPa 0,0 l/m 2,5 km/h (1 Bft) S-SW 202 11,3 C 24,7 C
19.05.2012 16:41 24,5 C 44 % 1013,1 hPa 0,0 l/m 13,0 km/h (3 Bft) S 180 11,4 C 24,5 C
19.05.2012 16:46 24,4 C 44 % 1013,2 hPa 0,0 l/m 6,8 km/h (2 Bft) S-SO 157 11,3 C 24,4 C
19.05.2012 16:51 24,2 C 45 % 1013,1 hPa 0,0 l/m 8,3 km/h (2 Bft) W-SW 247 11,5 C 24,2 C
19.05.2012 16:56 24,1 C 45 % 1013,2 hPa 0,0 l/m 7,2 km/h (2 Bft) SW 225 11,4 C 24,1 C
19.05.2012 17:01 23,9 C 46 % 1013,2 hPa 0,0 l/m 8,6 km/h (2 Bft) S 180 11,6 C 23,9 C
19.05.2012 17:06 23,9 C 46 % 1013,1 hPa 0,0 l/m 3,2 km/h (1 Bft) S 180 11,6 C 23,9 C
19.05.2012 17:11 24,1 C 47 % 1013,1 hPa 0,0 l/m 2,5 km/h (1 Bft) S 180 12,1 C 24,1 C
19.05.2012 17:16 24,5 C 46 % 1013,1 hPa 0,0 l/m 6,5 km/h (2 Bft) SW 225 12,1 C 24,5 C
19.05.2012 17:21 24,8 C 46 % 1013,1 hPa 0,0 l/m 5,0 km/h (1 Bft) S 180 12,4 C 24,8 C
19.05.2012 17:26 24,8 C 45 % 1013,1 hPa 0,0 l/m 5,8 km/h (2 Bft) S-SO 157 12,0 C 24,8 C
19.05.2012 17:31 24,6 C 44 % 1013,1 hPa 0,0 l/m 3,2 km/h (1 Bft) S 180 11,5 C 24,6 C
19.05.2012 17:36 24,4 C 44 % 1013,1 hPa 0,0 l/m 5,4 km/h (1 Bft) S-SW 202 11,3 C 24,4 C
19.05.2012 17:41 24,2 C 44 % 1013,1 hPa 0,0 l/m 9,0 km/h (2 Bft) SW 225 11,2 C 24,2 C
19.05.2012 17:46 23,9 C 45 % 1013,1 hPa 0,0 l/m 2,9 km/h (1 Bft) S-SW 202 11,2 C 23,9 C
19.05.2012 17:51 23,8 C 46 % 1013,2 hPa 0,0 l/m 2,2 km/h (1 Bft) S 180 11,5 C 23,8 C
19.05.2012 17:56 23,8 C 46 % 1013,0 hPa 0,0 l/m 2,5 km/h (1 Bft) SO 135 11,5 C 23,8 C
19.05.2012 18:01 23,8 C 46 % 1012,9 hPa 0,0 l/m 0,0 km/h (0 Bft) SO 135 11,5 C 23,8 C
19.05.2012 18:06 23,8 C 46 % 1012,8 hPa 0,0 l/m 2,5 km/h (1 Bft) S 180 11,5 C 23,8 C
19.05.2012 18:11 23,9 C 46 % 1012,7 hPa 0,0 l/m 0,0 km/h (0 Bft) W-SW 247 11,6 C 23,9 C
19.05.2012 18:16 23,9 C 46 % 1012,8 hPa 0,0 l/m 4,7 km/h (1 Bft) SO 135 11,6 C 23,9 C
19.05.2012 18:21 23,9 C 45 % 1012,8 hPa 0,0 l/m 0,0 km/h (0 Bft) W-SW 247 11,2 C 23,9 C
19.05.2012 18:26 23,7 C 46 % 1012,7 hPa 0,0 l/m 3,2 km/h (1 Bft) NO 45 11,4 C 23,7 C
19.05.2012 18:31 23,5 C 46 % 1012,7 hPa 0,0 l/m 1,4 km/h (1 Bft) O-SO 112 11,2 C 23,5 C
19.05.2012 18:36 23,2 C 47 % 1012,8 hPa 0,0 l/m 0,0 km/h (0 Bft) O 90 11,3 C 23,2 C
19.05.2012 18:41 23,0 C 48 % 1012,8 hPa 0,0 l/m 6,1 km/h (2 Bft) O-SO 112 11,4 C 23,0 C
19.05.2012 18:46 22,8 C 49 % 1012,8 hPa 0,0 l/m 0,0 km/h (0 Bft) O-SO 112 11,5 C 22,8 C
19.05.2012 18:51 22,6 C 50 % 1012,7 hPa 0,0 l/m 2,5 km/h (1 Bft) O-SO 112 11,6 C 22,6 C
19.05.2012 18:56 22,4 C 50 % 1012,6 hPa 0,0 l/m 0,0 km/h (0 Bft) O-NO 67 11,5 C 22,4 C
19.05.2012 19:01 22,3 C 50 % 1012,7 hPa 0,0 l/m 0,0 km/h (0 Bft) O 90 11,4 C 22,3 C
19.05.2012 19:06 22,2 C 50 % 1012,7 hPa 0,0 l/m 2,2 km/h (1 Bft) O 90 11,3 C 22,2 C
19.05.2012 19:11 22,1 C 51 % 1012,7 hPa 0,0 l/m 2,2 km/h (1 Bft) O 90 11,5 C 22,1 C
19.05.2012 19:16 22,1 C 51 % 1012,7 hPa 0,0 l/m 2,9 km/h (1 Bft) O-NO 67 11,5 C 22,1 C
19.05.2012 19:21 22,1 C 51 % 1012,7 hPa 0,0 l/m 2,9 km/h (1 Bft) O-NO 67 11,5 C 22,1 C
19.05.2012 19:26 22,1 C 52 % 1012,6 hPa 0,0 l/m 1,4 km/h (1 Bft) O 90 11,8 C 22,1 C
19.05.2012 19:31 22,1 C 53 % 1012,7 hPa 0,0 l/m 4,0 km/h (1 Bft) O 90 12,1 C 22,1 C
19.05.2012 19:36 22,2 C 54 % 1012,6 hPa 0,0 l/m 3,6 km/h (1 Bft) O-NO 67 12,4 C 22,2 C
19.05.2012 19:41 22,1 C 56 % 1012,7 hPa 0,0 l/m 8,3 km/h (2 Bft) O-NO 67 12,9 C 22,1 C
19.05.2012 19:46 21,8 C 57 % 1012,8 hPa 0,0 l/m 8,6 km/h (2 Bft) O-NO 67 12,9 C 21,8 C
19.05.2012 19:51 21,5 C 57 % 1012,7 hPa 0,0 l/m 7,6 km/h (2 Bft) O 90 12,6 C 21,5 C
19.05.2012 19:56 21,3 C 57 % 1012,6 hPa 0,0 l/m 6,5 km/h (2 Bft) O-SO 112 12,4 C 21,3 C
19.05.2012 20:01 21,1 C 58 % 1012,7 hPa 0,0 l/m 4,3 km/h (1 Bft) O-SO 112 12,5 C 21,1 C
19.05.2012 20:06 20,9 C 58 % 1012,8 hPa 0,0 l/m 3,6 km/h (1 Bft) O 90 12,3 C 20,9 C
19.05.2012 20:11 20,8 C 58 % 1012,8 hPa 0,0 l/m 2,9 km/h (1 Bft) SO 135 12,2 C 20,8 C
19.05.2012 20:16 20,6 C 59 % 1012,7 hPa 0,0 l/m 4,0 km/h (1 Bft) O 90 12,3 C 20,6 C
19.05.2012 20:21 20,4 C 60 % 1012,7 hPa 0,0 l/m 2,2 km/h (1 Bft) O 90 12,4 C 20,4 C
19.05.2012 20:26 20,3 C 61 % 1012,7 hPa 0,0 l/m 3,6 km/h (1 Bft) O 90 12,5 C 20,3 C
19.05.2012 20:31 20,2 C 61 % 1012,8 hPa 0,0 l/m 2,5 km/h (1 Bft) O 90 12,4 C 20,2 C
19.05.2012 20:36 20,1 C 62 % 1012,8 hPa 0,0 l/m 1,8 km/h (1 Bft) O-SO 112 12,6 C 20,1 C
19.05.2012 20:41 19,9 C 62 % 1012,9 hPa 0,0 l/m 2,2 km/h (1 Bft) O 90 12,4 C 19,9 C
19.05.2012 20:46 19,9 C 62 % 1012,9 hPa 0,0 l/m 2,2 km/h (1 Bft) O-NO 67 12,4 C 19,9 C
19.05.2012 20:51 19,8 C 62 % 1012,9 hPa 0,0 l/m 2,2 km/h (1 Bft) O 90 12,3 C 19,8 C
19.05.2012 20:56 19,6 C 63 % 1012,9 hPa 0,0 l/m 3,2 km/h (1 Bft) O 90 12,4 C 19,6 C
19.05.2012 21:01 19,6 C 63 % 1012,9 hPa 0,0 l/m 4,7 km/h (1 Bft) O 90 12,4 C 19,6 C
19.05.2012 21:06 19,4 C 64 % 1012,9 hPa 0,0 l/m 2,5 km/h (1 Bft) O-SO 112 12,4 C 19,4 C
19.05.2012 21:11 19,3 C 64 % 1013,1 hPa 0,0 l/m 2,2 km/h (1 Bft) O 90 12,3 C 19,3 C
19.05.2012 21:16 19,1 C 64 % 1013,1 hPa 0,0 l/m 2,5 km/h (1 Bft) O 90 12,1 C 19,1 C
19.05.2012 21:21 18,9 C 65 % 1013,1 hPa 0,0 l/m 2,5 km/h (1 Bft) O-SO 112 12,2 C 18,9 C
19.05.2012 21:26 18,8 C 65 % 1013,1 hPa 0,0 l/m 1,4 km/h (1 Bft) O 90 12,1 C 18,8 C
19.05.2012 21:31 18,6 C 65 % 1013,1 hPa 0,0 l/m 2,2 km/h (1 Bft) O 90 11,9 C 18,6 C
19.05.2012 21:36 18,5 C 65 % 1013,0 hPa 0,0 l/m 3,2 km/h (1 Bft) O-SO 112 11,8 C 18,5 C
19.05.2012 21:41 18,4 C 66 % 1013,0 hPa 0,0 l/m 3,2 km/h (1 Bft) O 90 11,9 C 18,4 C
19.05.2012 21:46 18,3 C 66 % 1013,1 hPa 0,0 l/m 5,4 km/h (1 Bft) O-SO 112 11,8 C 18,3 C
19.05.2012 21:51 18,2 C 66 % 1013,0 hPa 0,0 l/m 4,0 km/h (1 Bft) O-SO 112 11,7 C 18,2 C
19.05.2012 21:56 18,1 C 66 % 1013,1 hPa 0,0 l/m 4,7 km/h (1 Bft) O 90 11,6 C 18,1 C
19.05.2012 22:01 17,9 C 67 % 1013,2 hPa 0,0 l/m 4,0 km/h (1 Bft) O 90 11,7 C 17,9 C
19.05.2012 22:06 17,9 C 67 % 1013,2 hPa 0,0 l/m 6,5 km/h (2 Bft) O-SO 112 11,7 C 17,9 C
19.05.2012 22:11 17,8 C 67 % 1013,0 hPa 0,0 l/m 3,2 km/h (1 Bft) O-SO 112 11,6 C 17,8 C
19.05.2012 22:16 17,6 C 67 % 1013,1 hPa 0,0 l/m 4,0 km/h (1 Bft) O 90 11,4 C 17,6 C
19.05.2012 22:21 17,6 C 67 % 1013,0 hPa 0,0 l/m 0,0 km/h (0 Bft) O 90 11,4 C 17,6 C
19.05.2012 22:26 17,4 C 67 % 1013,0 hPa 0,0 l/m 0,0 km/h (0 Bft) O-NO 67 11,2 C 17,4 C
19.05.2012 22:31 17,4 C 67 % 1012,9 hPa 0,0 l/m 0,0 km/h (0 Bft) O 90 11,2 C 17,4 C
19.05.2012 22:36 17,3 C 68 % 1013,1 hPa 0,0 l/m 0,0 km/h (0 Bft) O 90 11,3 C 17,3 C
19.05.2012 22:41 17,2 C 68 % 1013,0 hPa 0,0 l/m 2,2 km/h (1 Bft) O-NO 67 11,2 C 17,2 C
19.05.2012 22:46 17,1 C 68 % 1012,9 hPa 0,0 l/m 0,0 km/h (0 Bft) O-NO 67 11,1 C 17,1 C
19.05.2012 22:51 17,1 C 68 % 1013,0 hPa 0,0 l/m 2,5 km/h (1 Bft) O-NO 67 11,1 C 17,1 C
19.05.2012 22:56 17,0 C 68 % 1013,0 hPa 0,0 l/m 0,0 km/h (0 Bft) O 90 11,0 C 17,0 C
19.05.2012 23:01 17,0 C 68 % 1012,9 hPa 0,0 l/m 0,0 km/h (0 Bft) O 90 11,0 C 17,0 C
19.05.2012 23:06 16,9 C 68 % 1013,0 hPa 0,0 l/m 1,8 km/h (1 Bft) O-NO 67 11,0 C 16,9 C
19.05.2012 23:11 16,9 C 68 % 1013,0 hPa 0,0 l/m 0,0 km/h (0 Bft) O-NO 67 11,0 C 16,9 C
19.05.2012 23:16 16,9 C 68 % 1013,1 hPa 0,0 l/m 1,4 km/h (1 Bft) O-NO 67 11,0 C 16,9 C
19.05.2012 23:21 16,9 C 68 % 1013,1 hPa 0,0 l/m 2,9 km/h (1 Bft) O-NO 67 11,0 C 16,9 C
19.05.2012 23:26 16,9 C 68 % 1012,9 hPa 0,0 l/m 2,9 km/h (1 Bft) O 90 11,0 C 16,9 C
19.05.2012 23:31 16,9 C 68 % 1012,9 hPa 0,0 l/m 1,8 km/h (1 Bft) O-SO 112 11,0 C 16,9 C
19.05.2012 23:36 16,9 C 68 % 1012,9 hPa 0,0 l/m 1,8 km/h (1 Bft) O 90 11,0 C 16,9 C
19.05.2012 23:41 16,9 C 68 % 1012,8 hPa 0,0 l/m 1,4 km/h (1 Bft) O 90 11,0 C 16,9 C
19.05.2012 23:46 16,9 C 68 % 1012,7 hPa 0,0 l/m 3,2 km/h (1 Bft) O-SO 112 11,0 C 16,9 C
19.05.2012 23:51 16,9 C 68 % 1012,6 hPa 0,0 l/m 4,0 km/h (1 Bft) O-NO 67 11,0 C 16,9 C
19.05.2012 23:56 16,8 C 68 % 1012,5 hPa 0,0 l/m 4,0 km/h (1 Bft) O-NO 67 10,9 C 16,8 C
_ Min-Zeit 06:51 15:21 23:56 - 02:11 - - 00:21 06:51
Minimum _ 10,9 C 42 % 1012,5 hPa - 0,0 km/h (0 Bft) - - 2,4 C 10,9 C
_ Max-Zeit 16:11 07:21 08:46 00:01 13:51 - - 19:41 16:11
Maximum _ 25,3 C 73 % 1015,1 hPa 0,0 l/m 23,0 km/h
S (4 Bft)
- - 12,9 C 25,3 C
Durchschnitt _ 17,6 C 56 % 1014,0 hPa #0,0 l/m 5,0 km/h (1 Bft) O - 8,6 C 17,6 C
(c) by David Heller